Location: Doschendorf
(50.0069°N, 11.0602°E)
Time: 05:45:02
(UTC+00:00)

Cosmos 2369 Rocket - Pass Details

Date: 17 November 2019
Orbit: 830 x 851 km, 71.0° (Epoch: 12 December)

Event Time Altitude Azimuth Distance (km) Brightness Sun altitude
Rises 16:07:23 0° 255° (WSW) 3,376 7.8 -6.3°
Reaches altitude 10° 16:10:22 10° 270° (W) 2,443 5.9 -6.7°
Maximum altitude 16:14:40 22° 321° (NW) 1,741 4.1 -7.4°
Drops below altitude 10° 16:19:00 10° 11° (N) 2,448 4.3 -8.0°
Enters shadow 16:21:59 - 27° (NNE) 3,377 4.9 -8.5°
